KL1SF-7 Weather Reports


Display with metric or nautical units.
time (UTC)temp
F
wind
direction
speed
MPH
gust
MPH
rain 1hr
in
rain 24hr
in
rain mn
in
humidity
%
barometer
mb
20260507023340 59 326 0.0 0.0 0.00 0.00 0.00 23 1018.7
20260507022321 59 326 0.0 0.0 0.00 0.00 0.00 23 1018.8
20260507021331 60 326 0.0 0.0 0.00 0.00 0.00 22 1018.8
20260507020343 60 328 0.0 0.0 0.00 0.00 0.00 22 1018.2
20260507015328 61 326 0.0 0.0 0.00 0.00 0.00 22 1018.1
20260507014338 61 328 0.0 0.0 0.00 0.00 0.00 21 1018.1
20260507013331 62 322 0.0 0.0 0.00 0.00 0.00 21 1018.0
20260507012331 62 337 0.0 0.0 0.00 0.00 0.00 21 1017.9
20260507011321 62 275 0.0 0.0 0.00 0.00 0.00 21 1017.9
20260507010333 62 247 0.0 0.0 0.00 0.00 0.00 21 1018.0
20260507005338 63 247 0.0 0.0 0.00 0.00 0.00 21 1018.1
20260507004330 63 258 0.0 0.0 0.00 0.00 0.00 22 1018.1
20260507003343 63 258 0.0 0.0 0.00 0.00 0.00 21 1017.9
20260507002323 63 258 0.0 0.0 0.00 0.00 0.00 22 1017.9
20260507001333 64 299 0.0 0.0 0.00 0.00 0.00 21 1017.9
20260507000345 64 253 0.0 0.0 0.00 0.00 0.00 21 1017.7
20260506235330 64 339 0.0 0.0 0.00 0.00 0.00 21 1017.8
20260506234323 64 344 1.0 0.0 0.00 0.00 0.00 21 1017.8
20260506233335 65 248 1.0 0.0 0.00 0.00 0.00 21 1017.7
20260506232337 64 320 1.0 0.0 0.00 0.00 0.00 22 1017.3
20260506231326 65 330 2.0 0.0 0.00 0.00 0.00 21 1017.3
20260506230339 65 328 3.0 0.0 0.00 0.00 0.00 22 1017.7
20260506225323 64 267 1.0 0.0 0.00 0.00 0.00 22 1017.9
20260506224333 65 344 1.0 0.0 0.00 0.00 0.00 22 1017.9
20260506223346 65 349 1.0 0.0 0.00 0.00 0.00 21 1017.3
20260506222326 65 277 0.0 0.0 0.00 0.00 0.00 22 1017.9
20260506221336 64 359 0.0 0.0 0.00 0.00 0.00 22 1017.9
20260506220349 64 347 1.0 0.0 0.00 0.00 0.00 23 1018.1
20260506215332 64 301 0.0 0.0 0.00 0.00 0.00 22 1018.1
20260506214322 64 217 1.0 0.0 0.00 0.00 0.00 22 1018.1
20260506213334 63 346 0.0 0.0 0.00 0.00 0.00 23 1017.9
20260506212335 62 215 1.0 0.0 0.00 0.00 0.00 24 1018.3
20260506211324 63 268 0.0 0.0 0.00 0.00 0.00 24 1018.3
20260506210337 62 248 1.0 0.0 0.00 0.00 0.00 24 1018.0
20260506205322 61 54 0.0 0.0 0.00 0.00 0.00 25 1017.9
20260506204331 62 11 1.0 0.0 0.00 0.00 0.00 24 1017.9
20260506203344 61 4 0.0 0.0 0.00 0.00 0.00 25 1018.0
20260506202325 60 292 0.0 0.0 0.00 0.00 0.00 26 1018.5
20260506201334 60 339 0.0 0.0 0.00 0.00 0.00 26 1018.5
20260506200331 61 344 1.0 0.0 0.00 0.00 0.00 25 1018.0
20260506195331 61 360 0.0 0.0 0.00 0.00 0.00 27 1018.0
20260506194325 60 71 0.0 0.0 0.00 0.00 0.00 27 1018.0
20260506193341 61 352 0.0 0.0 0.00 0.00 0.00 27 1018.1
20260506192322 59 263 0.0 0.0 0.00 0.00 0.00 28 1018.0
20260506191332 60 360 0.0 0.0 0.00 0.00 0.00 28 1018.0
20260506190345 60 330 0.0 0.0 0.00 0.00 0.00 28 1018.5
20260506185325 61 296 0.0 0.0 0.00 0.00 0.00 27 1018.6
20260506184338 61 13 0.0 0.0 0.00 0.00 0.00 27 1018.6
20260506183331 60 282 0.0 0.0 0.00 0.00 0.00 27 1018.3
20260506182331 59 258 0.0 0.0 0.00 0.00 0.00 29 1018.2
20260506181321 59 284 0.0 0.0 0.00 0.00 0.00 28 1018.2
20260506180334 58 248 0.0 0.0 0.00 0.00 0.00 28 1018.7
20260506175335 57 356 1.0 0.0 0.00 0.00 0.00 30 1018.7
20260506174329 57 319 1.0 0.0 0.00 0.00 0.00 31 1018.7
20260506173341 57 251 1.0 0.0 0.00 0.00 0.00 32 1018.6
20260506172322 56 260 0.0 0.0 0.00 0.00 0.00 31 1018.1
20260506171332 56 343 1.0 0.0 0.00 0.00 0.00 31 1018.1
20260506170344 56 268 0.0 0.0 0.00 0.00 0.00 29 1018.2
20260506165325 56 329 1.0 0.0 0.00 0.00 0.00 30 1018.1
20260506164335 55 113 0.0 0.0 0.00 0.00 0.00 31 1018.1
20260506163332 54 258 0.0 0.0 0.00 0.00 0.00 31 1018.0
20260506162332 54 312 1.0 0.0 0.00 0.00 0.00 31 1017.7
20260506161322 54 265 1.0 0.0 0.00 0.00 0.00 31 1017.7
20260506160334 54 337 0.0 0.0 0.00 0.00 0.00 33 1017.8
20260506155335 53 315 0.0 0.0 0.00 0.00 0.00 35 1017.4
20260506154325 52 260 0.0 0.0 0.00 0.00 0.00 35 1017.4
20260506153342 52 268 0.0 0.0 0.00 0.00 0.00 34 1017.4
20260506152323 50 340 0.0 0.0 0.00 0.00 0.00 37 1017.9
20260506151332 49 217 0.0 0.0 0.00 0.00 0.00 39 1017.9
20260506150345 48 243 0.0 0.0 0.00 0.00 0.00 43 1017.9
20260506145327 47 278 0.0 0.0 0.00 0.00 0.00 46 1017.5
20260506144339 45 258 0.0 0.0 0.00 0.00 0.00 50 1017.5
20260506143336 43 189 0.0 0.0 0.00 0.00 0.00 52 1017.6
20260506142337 42 185 0.0 0.0 0.00 0.00 0.00 55 1017.4
20260506141326 40 185 0.0 0.0 0.00 0.00 0.00 57 1017.4
20260506140339 39 178 0.0 0.0 0.00 0.00 0.00 58 1017.6
20260506135340 38 172 0.0 0.0 0.00 0.00 0.00 61 1017.0
20260506134329 37 220 0.0 0.0 0.00 0.00 0.00 65 1017.0
20260506133346 36 222 0.0 0.0 0.00 0.00 0.00 67 1017.2
20260506132327 35 220 0.0 0.0 0.00 0.00 0.00 67 1016.9
20260506131337 35 220 0.0 0.0 0.00 0.00 0.00 69 1016.9
20260506130329 34 220 0.0 0.0 0.00 0.00 0.00 70 1016.8
20260506125330 33 222 0.0 0.0 0.00 0.00 0.00 70 1016.6
20260506124340 33 222 0.0 0.0 0.00 0.00 0.00 69 1016.6
20260506123337 34 222 0.0 0.0 0.00 0.00 0.00 68 1016.5
20260506122337 34 222 0.0 0.0 0.00 0.00 0.00 68 1016.4
20260506121327 34 222 0.0 0.0 0.00 0.00 0.00 67 1016.4
20260506120340 35 222 0.0 0.0 0.00 0.00 0.00 67 1016.0
20260506115320 35 222 0.0 0.0 0.00 0.00 0.00 67 1015.8
20260506114330 35 222 0.0 0.0 0.00 0.00 0.00 67 1015.8
20260506113343 34 220 0.0 0.0 0.00 0.00 0.00 67 1015.8
20260506112327 34 222 0.0 0.0 0.00 0.00 0.00 67 1015.7
20260506111338 34 222 0.0 0.0 0.00 0.00 0.00 68 1015.7
20260506110330 34 222 0.0 0.0 0.00 0.00 0.00 68 1015.8
20260506105331 35 222 0.0 0.0 0.00 0.00 0.00 68 1015.6
20260506104320 35 222 0.0 0.0 0.00 0.00 0.00 67 1015.6
20260506103333 35 222 0.0 0.0 0.00 0.00 0.00 67 1015.0
20260506102321 36 222 0.0 0.0 0.00 0.00 0.00 67 1015.4
20260506101330 35 222 0.0 0.0 0.00 0.00 0.00 68 1015.4
20260506100342 35 222 0.0 0.0 0.00 0.00 0.00 69 1015.0
20260506095327 35 222 0.0 0.0 0.00 0.00 0.00 70 1014.9
20260506094337 35 222 0.0 0.0 0.00 0.00 0.00 70 1014.9
20260506093348 34 222 0.0 0.0 0.00 0.00 0.00 71 1015.2
20260506092333 35 222 0.0 0.0 0.00 0.00 0.00 71 1014.7
20260506091323 35 222 0.0 0.0 0.00 0.00 0.00 71 1014.7
20260506090336 35 222 0.0 0.0 0.00 0.00 0.00 71 1014.9
20260506085340 35 222 0.0 0.0 0.00 0.00 0.00 71 1014.8
20260506084329 35 222 0.0 0.0 0.00 0.00 0.00 72 1014.8
20260506083341 36 222 0.0 0.0 0.00 0.00 0.00 71 1014.9
20260506082326 36 222 0.0 0.0 0.00 0.00 0.00 70 1015.2
20260506081336 37 222 0.0 0.0 0.00 0.00 0.00 69 1015.2
20260506080349 37 222 0.0 0.0 0.00 0.00 0.00 68 1015.2
20260506073335 37 220 0.0 0.0 0.00 0.00 0.00 71 1015.5
20260506072340 38 220 0.0 0.0 0.00 0.00 0.00 71 1015.6
20260506071329 38 220 0.0 0.0 0.00 0.00 0.00 72 1015.6
20260506070341 38 220 0.0 0.0 0.00 0.00 0.00 72 1015.2
20260506062335 37 220 0.0 0.0 0.00 0.00 0.00 75 1015.3
20260506061330 37 220 0.0 0.0 0.00 0.00 0.00 76 1015.3
20260506060343 37 220 0.0 0.0 0.00 0.00 0.00 77 1014.8
20260506051340 37 220 0.0 0.0 0.00 0.00 0.00 76 1014.6
20260506050333 37 220 0.0 0.0 0.00 0.00 0.00 76 1014.2
20260506044323 37 220 0.0 0.0 0.00 0.00 0.00 76 1014.1
20260506043336 38 220 0.0 0.0 0.00 0.00 0.00 75 1014.3
20260506042321 38 220 0.0 0.0 0.00 0.00 0.00 74 1014.2
20260506041330 38 219 0.0 0.0 0.00 0.00 0.00 73 1014.2
20260506040343 39 226 0.0 0.0 0.00 0.00 0.00 72 1013.9
20260506035324 39 210 0.0 0.0 0.00 0.00 0.00 71 1013.6
20260506034334 40 210 0.0 0.0 0.00 0.00 0.00 70 1013.6
20260506033346 40 217 0.0 0.0 0.00 0.00 0.00 68 1013.5
20260506032328 40 215 1.0 0.0 0.00 0.00 0.00 67 1013.6
20260506031325 41 212 0.0 0.0 0.00 0.00 0.00 65 1013.6
20260506030337 41 217 0.0 0.0 0.00 0.00 0.00 64 1012.8
20260506025339 41 216 2.0 0.0 0.00 0.00 0.00 63 1012.7
20260506024329 42 178 2.0 0.0 0.00 0.00 0.00 61 1012.7